[[{"header":{"parameterUnit":"m.s-1","parameterCategory":1,"la1":30.2991,"la2":30.254,"lo1":-89.0895,"lo2":-89.0444,"dy":0.0017,"dx":0.0017,"nx":28,"ny":28,"refTime":"2023-08-29T03:00:00:Z","depth":0,"parameterNumber":2,"parameterNumberName":"U-component_of_WINDS"},"data":[0,0,0,0,0,0,0,0,0,0,0,0,0,0,0,0,0,0,0,0,0,0,0,0,0,0,0,0,0,0,0,0,0,0,0,0,0,0,0,0,0,0,0,0,0,0,0,0,0,0,0,0,0,0,0,0,0,0,1.3856,1.3855,0,1.3825,1.3825,1.3824,1.3796,1.3795,1.3795,1.3795,1.3761,1.3761,1.376,0,0,0,0,0,0,0,0,0,0,0,0,0,1.3889,1.3888,1.3856,1.3855,1.3855,1.3825,1.3825,1.3824,1.3796,1.3795,1.3795,1.3794,1.3761,1.3761,1.376,0,0,0,0,0,0,0,0,0,0,0,0,0,1.3868,1.3888,1.3856,1.3837,1.3835,1.3825,1.3825,1.3824,1.3796,1.3795,1.3795,1.3794,1.3762,1.3761,1.376,1.3765,0,0,1.3757,1.3757,0,0,0,0,0,0,0,0,1.3869,1.3867,1.384,1.3838,1.3836,1.3814,1.3824,1.3804,1.3796,1.3811,1.3795,1.3794,1.3779,1.3777,1.3772,1.3764,1.3762,1.3757,1.3757,1.3756,1.3756,0,0,0,0,0,0,0,1.3871,1.3868,1.3843,1.384,1.3837,1.383,1.3827,1.382,1.3798,1.3809,1.3807,1.3804,1.3778,1.3773,1.3771,1.3762,1.3757,1.3757,1.3756,1.3756,1.3758,1.3759,0,0,0,0,0,0,1.3875,1.3869,1.3844,1.3843,1.3852,1.383,1.3826,1.3821,1.3798,1.3794,1.3805,1.3803,1.3775,1.3772,1.377,1.3775,1.3756,1.3756,1.3755,1.3758,1.3758,1.3759,0,0,0,0,0,0,1.3876,1.3873,1.3846,1.3855,1.3851,1.383,1.3825,1.3821,1.3816,1.3794,1.379,1.3804,1.3774,1.3771,1.3767,1.3774,1.3755,1.3755,1.3757,1.3758,1.3759,1.3786,0,0,0,0,0,0,1.3877,1.3874,1.3875,1.3856,1.3851,1.3844,1.3825,1.3821,1.3815,1.3812,1.3793,1.3789,1.3773,1.3769,1.3766,1.3772,1.3754,1.3756,1.3757,1.3758,1.3784,1.3787,1.379,0,0,0,0,0,1.3878,1.3883,1.3876,1.3873,1.3853,1.3844,1.3841,1.3824,1.3816,1.3817,1.3804,1.3789,1.3774,1.3768,1.3766,1.3771,1.3756,1.3757,1.3758,1.3783,1.3787,1.379,0,0,0,0,0,0,1.3903,1.388,1.3871,1.387,1.386,1.3839,1.384,1.3829,1.3819,1.3817,1.3796,1.3792,1.3791,1.3781,1.3775,1.3776,1.3763,1.3764,1.3782,1.3786,1.3789,1.3791,1.3753,0,0,0,0,0,1.3909,1.3904,1.3884,1.3885,1.388,1.3862,1.3857,1.3845,1.3833,1.3828,1.3814,1.3802,1.3795,1.379,1.3782,1.3783,1.3779,1.3786,1.3789,1.3792,1.3792,1.3793,1.3796,1.3763,1.3763,1.3763,0,0,1.3919,1.3906,1.3904,1.389,1.388,1.3875,1.3858,1.3853,1.385,1.3827,1.3823,1.3813,1.3798,1.3797,1.3796,1.3789,1.3801,1.3793,1.3795,1.3794,1.3795,1.3798,1.3801,1.3764,1.3764,1.3764,0,0,1.3937,1.3926,1.3926,1.3918,1.3904,1.3892,1.3892,1.3874,1.3867,1.3863,1.3846,1.3842,1.3829,1.382,1.3813,1.3831,1.3817,1.3829,1.3844,1.3845,1.3848,1.385,1.3856,1.3858,1.3829,1.383,1.383,0,1.3951,1.3944,1.3928,1.3925,1.3919,1.39,1.39,1.3893,1.3876,1.3873,1.3866,1.3851,1.3839,1.3837,1.3841,1.3837,1.3837,1.383,1.3849,1.3851,1.3852,1.3858,1.3861,1.3831,1.3831,1.3831,1.3831,0,1.3963,1.3959,1.3961,1.3947,1.3942,1.394,1.3924,1.3921,1.391,1.3899,1.3896,1.3883,1.3872,1.3871,1.386,1.3867,1.3863,1.3853,1.3839,1.3857,1.3862,1.3864,1.3833,1.3833,1.3832,1.3832,0,0,1.3992,1.3972,1.3973,1.3967,1.3952,1.3948,1.3946,1.3937,1.3935,1.3925,1.3923,1.3915,1.3906,1.3898,1.3887,1.3888,1.3903,1.3877,1.3877,1.3882,1.3911,1.3919,1.3921,1.3895,1.3895,1.3896,1.3912,0,1.4007,1.4003,1.399,1.399,1.3986,1.3969,1.3968,1.3959,1.3949,1.3945,1.3934,1.3928,1.3916,1.3912,1.3913,1.3901,1.3908,1.39,1.3893,1.3893,1.3896,1.3924,1.3931,1.3947,1.3914,1.3914,1.3915,0,1.4022,1.4015,1.4015,1.4002,1.4,1.3999,1.399,1.3986,1.3976,1.3969,1.3962,1.395,1.3948,1.3937,1.3934,1.3928,1.3925,1.3919,1.3919,1.3917,1.3904,1.3922,1.3952,1.3954,1.3918,1.3917,1.3917,0,1.4043,1.4034,1.4033,1.4029,1.4013,1.4013,1.4006,1.3995,1.3991,1.3984,1.3981,1.3974,1.3969,1.3964,1.395,1.3943,1.3949,1.3936,1.3943,1.3944,1.3944,1.3944,1.3973,1.3944,1.3943,1.3943,1.3943,0,1.406,1.406,1.4043,1.4042,1.4043,1.4028,1.4029,1.4021,1.4012,1.401,1.3995,1.3994,1.3976,1.3972,1.3962,1.3961,1.396,1.3954,1.3951,1.3955,1.3955,1.3951,1.3949,1.3944,1.3944,1.3944,1.3944,0,1.4082,1.4071,1.4069,1.4055,1.4052,1.4053,1.4041,1.404,1.4031,1.4028,1.4027,1.4012,1.4007,1.3994,1.3985,1.3978,1.3981,1.3976,1.3984,1.3982,1.399,1.3989,1.4017,1.402,1.3989,1.399,1.399,0,1.4093,1.4094,1.4081,1.4079,1.4073,1.407,1.4066,1.4052,1.4049,1.4039,1.4039,1.4034,1.4028,1.4022,1.401,1.4004,1.3998,1.4009,1.3997,1.4002,1.3998,1.3998,1.3998,1.4011,1.4011,1.4011,1.4012,0,1.4114,1.4108,1.4104,1.4098,1.4095,1.4089,1.4083,1.4082,1.4067,1.4064,1.406,1.4056,1.4048,1.4043,1.4036,1.4029,1.4018,1.4016,1.4017,1.402,1.4025,1.4023,1.399,1.4015,1.4014,1.4014,1.4014,1.4014,1.413,1.413,1.4122,1.4118,1.4112,1.4107,1.4106,1.4098,1.4094,1.4087,1.408,1.4077,1.4068,1.4057,1.4052,1.4049,1.4043,1.4045,1.4045,1.4045,1.4047,1.4027,1.4048,1.4048,1.4048,1.4047,1.4047,0,1.415,1.4144,1.4141,1.4133,1.413,1.4122,1.4115,1.4113,1.4111,1.4104,1.41,1.4096,1.4092,1.4081,1.4076,1.4076,1.4071,1.4075,1.4074,1.4073,1.4053,1.4052,1.4079,1.4079,1.4079,1.4079,1.4079,1.4079,1.4159,1.4159,1.4154,1.4151,1.4145,1.4143,1.414,1.4135,1.413,1.4126,1.4123,1.4117,1.4109,1.4103,1.4099,1.4096,1.4095,1.4101,1.4096,1.4077,1.4074,1.4071,1.407,1.4101,1.4101,1.4116,1.4116,1.4116]},{"header":{"parameterUnit":"m.s-1","parameterCategory":1,"la1":30.2991,"la2":30.254,"lo1":-89.0895,"lo2":-89.0444,"dy":0.0017,"dx":0.0017,"nx":28,"ny":28,"refTime":"2023-08-29T03:00:00:Z","depth":0,"parameterNumber":3,"parameterNumberName":"V-component_of_WINDS"},"data":[0,0,0,0,0,0,0,0,0,0,0,0,0,0,0,0,0,0,0,0,0,0,0,0,0,0,0,0,0,0,0,0,0,0,0,0,0,0,0,0,0,0,0,0,0,0,0,0,0,0,0,0,0,0,0,0,0,0,-4.1169,-4.117,0,-4.1191,-4.1191,-4.1191,-4.1196,-4.1196,-4.1195,-4.1195,-4.1216,-4.1217,-4.1217,0,0,0,0,0,0,0,0,0,0,0,0,0,-4.1133,-4.1133,-4.1169,-4.117,-4.117,-4.1191,-4.1191,-4.1191,-4.1196,-4.1196,-4.1195,-4.1195,-4.1216,-4.1216,-4.1217,0,0,0,0,0,0,0,0,0,0,0,0,0,-4.1151,-4.1134,-4.1169,-4.1175,-4.1176,-4.119,-4.1191,-4.1191,-4.1196,-4.1196,-4.1195,-4.1195,-4.1215,-4.1216,-4.1217,-4.1228,0,0,-4.1221,-4.1221,0,0,0,0,0,0,0,0,-4.115,-4.1152,-4.1174,-4.1174,-4.1175,-4.119,-4.1185,-4.1204,-4.1196,-4.1188,-4.1195,-4.1195,-4.1208,-4.1209,-4.1214,-4.1229,-4.123,-4.1221,-4.1221,-4.1222,-4.1222,0,0,0,0,0,0,0,-4.1148,-4.1151,-4.1178,-4.1174,-4.1175,-4.1176,-4.1178,-4.1189,-4.1199,-4.1189,-4.1189,-4.1192,-4.1208,-4.1213,-4.1214,-4.123,-4.1221,-4.1222,-4.1222,-4.1223,-4.1256,-4.1257,0,0,0,0,0,0,-4.1146,-4.115,-4.1177,-4.1178,-4.1162,-4.1177,-4.118,-4.1186,-4.1199,-4.12,-4.1192,-4.1192,-4.1211,-4.1213,-4.1215,-4.1228,-4.1222,-4.1223,-4.1223,-4.1256,-4.1256,-4.1257,0,0,0,0,0,0,-4.1146,-4.1149,-4.1176,-4.1164,-4.1168,-4.1178,-4.1185,-4.1186,-4.1191,-4.1201,-4.1203,-4.1195,-4.1211,-4.1213,-4.1225,-4.1229,-4.1223,-4.1224,-4.1256,-4.1256,-4.1256,-4.1255,0,0,0,0,0,0,-4.1145,-4.1148,-4.1153,-4.1164,-4.1169,-4.1186,-4.1185,-4.1187,-4.1193,-4.1193,-4.1204,-4.1206,-4.1211,-4.1223,-4.1226,-4.123,-4.1225,-4.1255,-4.1256,-4.1256,-4.1255,-4.1256,-4.1256,0,0,0,0,0,-4.1143,-4.1151,-4.1153,-4.1156,-4.1174,-4.1186,-4.1189,-4.1195,-4.1193,-4.1197,-4.1204,-4.1206,-4.1229,-4.1225,-4.1228,-4.1232,-4.1255,-4.1256,-4.1256,-4.1255,-4.1256,-4.1256,0,0,0,0,0,0,-4.1139,-4.1153,-4.1155,-4.1167,-4.1175,-4.1187,-4.1193,-4.1195,-4.1204,-4.1204,-4.121,-4.1213,-4.1224,-4.123,-4.1225,-4.1244,-4.1242,-4.1243,-4.124,-4.124,-4.1241,-4.1239,-4.1226,0,0,0,0,0,-4.1139,-4.1148,-4.116,-4.117,-4.1174,-4.1183,-4.1188,-4.1192,-4.1201,-4.1205,-4.1212,-4.122,-4.123,-4.1235,-4.1244,-4.1256,-4.1259,-4.1261,-4.1262,-4.1262,-4.1263,-4.127,-4.1271,-4.1259,-4.1259,-4.1259,0,0,-4.114,-4.1149,-4.1154,-4.1169,-4.1176,-4.1185,-4.1185,-4.1195,-4.1202,-4.1206,-4.1217,-4.1223,-4.1233,-4.1245,-4.1251,-4.125,-4.1267,-4.1263,-4.1263,-4.1264,-4.1271,-4.1272,-4.1273,-4.1259,-4.1259,-4.1259,0,0,-4.1147,-4.1154,-4.1163,-4.1171,-4.1182,-4.1188,-4.119,-4.1201,-4.1206,-4.1217,-4.1221,-4.1229,-4.1245,-4.1252,-4.1257,-4.1268,-4.127,-4.1271,-4.1273,-4.128,-4.1281,-4.1282,-4.1286,-4.1287,-4.1272,-4.1272,-4.1272,0,-4.1146,-4.116,-4.1167,-4.1177,-4.1183,-4.1188,-4.1197,-4.1204,-4.1217,-4.1222,-4.1221,-4.1241,-4.1248,-4.1262,-4.1265,-4.1269,-4.1272,-4.1269,-4.1281,-4.1282,-4.1282,-4.1286,-4.1287,-4.1272,-4.1272,-4.1272,-4.1272,0,-4.1159,-4.1169,-4.1175,-4.1188,-4.1195,-4.1205,-4.1213,-4.122,-4.1223,-4.1229,-4.1241,-4.125,-4.1261,-4.1265,-4.1268,-4.128,-4.1279,-4.1279,-4.1277,-4.1284,-4.1287,-4.1288,-4.1272,-4.1272,-4.1272,-4.1272,0,0,-4.1162,-4.118,-4.1182,-4.1189,-4.1202,-4.1209,-4.1219,-4.1231,-4.1236,-4.1245,-4.1254,-4.1267,-4.1268,-4.1274,-4.1279,-4.1285,-4.1293,-4.1285,-4.1285,-4.1285,-4.1305,-4.1305,-4.1306,-4.1294,-4.1294,-4.1295,-4.1305,0,-4.117,-4.1188,-4.1195,-4.1209,-4.1218,-4.1224,-4.1232,-4.1241,-4.1248,-4.1256,-4.1263,-4.1273,-4.1273,-4.1277,-4.1283,-4.129,-4.1297,-4.129,-4.1302,-4.1302,-4.1298,-4.1308,-4.1307,-4.1316,-4.1306,-4.1306,-4.1306,0,-4.1181,-4.1191,-4.1207,-4.1219,-4.1224,-4.1231,-4.1242,-4.1251,-4.1261,-4.1265,-4.1273,-4.1277,-4.1288,-4.1286,-4.13,-4.1296,-4.1301,-4.1305,-4.1306,-4.1307,-4.1304,-4.1309,-4.1319,-4.132,-4.1309,-4.1308,-4.1308,0,-4.1182,-4.1199,-4.1211,-4.1216,-4.1231,-4.1236,-4.1243,-4.1253,-4.126,-4.127,-4.1274,-4.1285,-4.1291,-4.1299,-4.1306,-4.1304,-4.132,-4.1319,-4.1324,-4.1324,-4.1326,-4.1326,-4.1337,-4.1331,-4.1331,-4.1331,-4.1331,0,-4.119,-4.1199,-4.1211,-4.1218,-4.1229,-4.1237,-4.1247,-4.1254,-4.1264,-4.1272,-4.1278,-4.1285,-4.1295,-4.1304,-4.1309,-4.1321,-4.1323,-4.1327,-4.1328,-4.1326,-4.1325,-4.1329,-4.1329,-4.1331,-4.1331,-4.1331,-4.1331,0,-4.1192,-4.1201,-4.1214,-4.1227,-4.1231,-4.1238,-4.1249,-4.1257,-4.1263,-4.1274,-4.1277,-4.1288,-4.1299,-4.1307,-4.1321,-4.1325,-4.1337,-4.1338,-4.1333,-4.1334,-4.1338,-4.1338,-4.1352,-4.1354,-4.1346,-4.1347,-4.1347,0,-4.1196,-4.1203,-4.1218,-4.1224,-4.123,-4.124,-4.1247,-4.1256,-4.1263,-4.1276,-4.1282,-4.1293,-4.1303,-4.132,-4.1329,-4.134,-4.1342,-4.1346,-4.1343,-4.1341,-4.1341,-4.1341,-4.1342,-4.1346,-4.1346,-4.1346,-4.1346,0,-4.1202,-4.1206,-4.1216,-4.1228,-4.1236,-4.1246,-4.1256,-4.126,-4.1271,-4.1279,-4.129,-4.1298,-4.1313,-4.1324,-4.1336,-4.1343,-4.1346,-4.1347,-4.1349,-4.1346,-4.1343,-4.1345,-4.1334,-4.1346,-4.1346,-4.1346,-4.1346,-4.1346,-4.1205,-4.1212,-4.1223,-4.1235,-4.1243,-4.1252,-4.126,-4.1268,-4.1278,-4.1291,-4.1295,-4.1307,-4.1318,-4.1335,-4.1341,-4.1351,-4.1351,-4.1353,-4.1354,-4.1354,-4.1354,-4.1342,-4.1353,-4.1353,-4.1353,-4.1353,-4.1353,0,-4.1211,-4.1219,-4.123,-4.1243,-4.1252,-4.1255,-4.1266,-4.1274,-4.1284,-4.1294,-4.1304,-4.1317,-4.1329,-4.1339,-4.135,-4.1356,-4.1358,-4.1359,-4.1358,-4.136,-4.1353,-4.1351,-4.1357,-4.1357,-4.1357,-4.1357,-4.1357,-4.1357,-4.1216,-4.1228,-4.1233,-4.125,-4.1257,-4.1269,-4.1276,-4.1284,-4.1292,-4.1307,-4.1317,-4.1323,-4.1334,-4.1346,-4.1357,-4.136,-4.1363,-4.1364,-4.1367,-4.1361,-4.136,-4.136,-4.1357,-4.1365,-4.1365,-4.1372,-4.1372,-4.1373]}]]